Terminal Aerodrome Forecast
Issued by NWS Nashville, TN

Home | Current Version | Previous Version | Text Only | Print | Product List | Glossary On
Versions: 1 2 3 4 5 6 7 8 9 10 11 12 13 14 15 16 17
000
FTUS44 KOHX 280520
TAFCSV
TAF
KCSV 280520Z 2806/2906 17004KT P6SM FEW060 BKN120
     FM280800 00000KT 3SM BR BKN120
     FM281300 17007KT P6SM SCT050 BKN100
     FM290000 VRB03KT P6SM SCT100 BKN250=

USA.gov is the U.S. government's official web portal to all federal, state and local government web resources and services.